Location: Balaclava NSW 2575, Australia
(34.4510°S, 150.4953°E)
Time: 04:25:49
(UTC+10:00)

X-37B - Visible Passes

Search period start: 02 August 2021 00:00
Search period end: 12 August 2021 00:00
Orbit: 383 x 392 km, 45.0° (Epoch: 01 July)

Date Brightness Start Highest point End Pass type
(mag) Time Alt. Az. Time Alt. Az. Time Alt. Az.
02 Aug 3.0 18:05:33 10° SSW 18:07:04 13° S 18:08:35 10° SSE visible
03 Aug 2.7 18:43:40 10° SSW 18:45:23 17° S 18:45:23 17° S visible
04 Aug 2.8 17:45:28 10° SSW 17:47:17 14° S 17:49:05 10° SE visible
04 Aug 3.4 19:21:30 10° SW 19:22:08 14° SW 19:22:08 14° SW visible
05 Aug 2.0 18:23:20 10° SW 18:26:02 24° SSE 18:26:41 22° SE visible
06 Aug 1.5 19:01:17 10° SW 19:03:39 45° SW 19:03:39 45° SW visible
07 Aug 1.3 18:03:01 10° SW 18:06:04 38° SSE 18:08:29 14° E visible
07 Aug 3.8 19:39:57 10° W 19:40:49 15° W 19:40:49 15° W visible
08 Aug 1.3 18:41:13 10° WSW 18:44:21 51° NW 18:45:50 26° NNE visible
09 Aug 0.6 17:42:48 10° SW 17:46:01 75° SSE 17:49:13 10° ENE visible
09 Aug 3.7 19:21:10 10° WNW 19:22:17 11° NW 19:23:23 10° NNW visible
10 Aug 3.0 18:21:29 10° W 18:24:07 23° NW 18:26:44 10° NNE visible
